[[{"header":{"parameterUnit":"m.s-1","parameterCategory":1,"la1":30.2991,"la2":30.254,"lo1":-89.0895,"lo2":-89.0444,"dy":0.0017,"dx":0.0017,"nx":28,"ny":28,"refTime":"2025-05-21T09:00:00:Z","depth":0,"parameterNumber":2,"parameterNumberName":"U-component_of_WINDS"},"data":[0,0,0,0,0,0,0,0,0,0,0,0,0,0,0,0,0,0,0,0,0,0,0,0,0,0,0,0,0,0,0,0,0,0,0,0,0,0,0,0,0,0,0,0,0,0,0,0,0,0,0,0,0,0,0,0,0,0,-0.0025,-0.0025,0,0.0015,0.0016,0.0016,-0.0015,-0.0016,-0.0017,-0.0019,0.0021,0.0023,0.0025,0,0,0,0,0,0,0,0,0,0,0,0,0,-0.013,-0.0128,-0.0025,-0.0025,-0.0024,0.0015,0.0016,0.0016,-0.0015,-0.0016,-0.0018,-0.0019,0.002,0.0023,0.0025,0,0,0,0,0,0,0,0,0,0,0,0,0,-0.0087,-0.0128,-0.0025,-0.0035,-0.0035,0.0015,0.0016,0.0016,-0.0014,-0.0016,-0.0018,-0.002,0.0019,0.0022,0.0026,0.0087,0,0,0.0036,0.0038,0,0,0,0,0,0,0,0,-0.0089,-0.0083,-0.0034,-0.0034,-0.0034,-0.0007,-0.0007,0.004,-0.0014,-0.0022,-0.0019,-0.0021,0.0013,0.0017,0.0029,0.0089,0.0091,0.0037,0.0039,0.004,0.0041,0,0,0,0,0,0,0,-0.0092,-0.0085,-0.0009,-0.0033,-0.0033,-0.0041,-0.0038,0.0002,0.0006,-0.0022,-0.0024,-0.0018,0.0012,0.0026,0.0029,0.0091,0.0036,0.004,0.0042,0.0043,0.0204,0.0206,0,0,0,0,0,0,-0.0094,-0.0087,-0.001,-0.0008,-0.0067,-0.0038,-0.0034,-0.0014,0.0006,0.0007,-0.0017,-0.002,0.0021,0.0025,0.0031,0.0104,0.004,0.0043,0.0045,0.0202,0.0204,0.0207,0,0,0,0,0,0,-0.0096,-0.0087,-0.0012,-0.0048,-0.0039,-0.0034,-0.0011,-0.0012,0.0001,0.0009,0.001,-0.0004,0.0019,0.0026,0.0074,0.0105,0.0045,0.0048,0.0199,0.0203,0.0206,0.0252,0,0,0,0,0,0,-0.0099,-0.0088,-0.0064,-0.0047,-0.0037,0.0031,-0.001,-0.001,0.0007,0.0004,0.0021,0.0022,0.0018,0.0069,0.0077,0.0109,0.0051,0.0196,0.0201,0.0205,0.0247,0.0256,0.0264,0,0,0,0,0,-0.0103,-0.0053,-0.0062,-0.0053,-0.0007,0.0033,0.0038,0.0033,0.001,0.0034,0.0039,0.0022,0.01,0.0074,0.0083,0.0116,0.0194,0.0199,0.0204,0.0244,0.0255,0.0264,0,0,0,0,0,0,-0.0067,-0.0051,-0.0061,-0.0005,0.0013,0.0027,0.0057,0.0045,0.0069,0.0064,0.0056,0.006,0.0111,0.0118,0.0088,0.0177,0.0144,0.0151,0.017,0.0181,0.0189,0.0186,0.0054,0,0,0,0,0,-0.0052,-0.002,-0.0009,0.004,0.005,0.0052,0.0069,0.0064,0.0081,0.0089,0.0097,0.0114,0.0143,0.0162,0.0189,0.0248,0.0252,0.0276,0.0284,0.029,0.0297,0.0329,0.034,0.0223,0.0223,0.0223,0,0,-0.0022,-0.0009,0.0011,0.0048,0.0061,0.0094,0.0058,0.0094,0.0118,0.0094,0.014,0.0147,0.0165,0.0219,0.0244,0.0227,0.033,0.0297,0.0302,0.0305,0.0336,0.0347,0.0357,0.0227,0.0226,0.0225,0,0,0.0051,0.0063,0.0106,0.012,0.014,0.0141,0.0152,0.0168,0.0172,0.0218,0.0201,0.0229,0.0278,0.0292,0.0306,0.0384,0.037,0.0393,0.0436,0.0468,0.0477,0.0485,0.0514,0.0524,0.0399,0.0399,0.0399,0,0.0086,0.0135,0.0129,0.0167,0.0183,0.0163,0.0206,0.022,0.0248,0.0259,0.0241,0.0303,0.0314,0.0371,0.039,0.0402,0.0413,0.0391,0.0476,0.0485,0.0492,0.0519,0.053,0.0402,0.0402,0.0402,0.0401,0,0.0178,0.0212,0.0244,0.0272,0.0292,0.0332,0.0332,0.0353,0.0346,0.0349,0.0396,0.0409,0.0438,0.0451,0.0444,0.0508,0.0497,0.0478,0.0444,0.0506,0.0532,0.0542,0.0406,0.0405,0.0404,0.0404,0,0,0.0274,0.0299,0.0311,0.0324,0.0345,0.0372,0.041,0.044,0.0458,0.0478,0.0511,0.0553,0.0535,0.0551,0.0545,0.0573,0.0635,0.055,0.055,0.0566,0.0707,0.0723,0.0735,0.0625,0.0627,0.0629,0.0706,0,0.0348,0.0417,0.0413,0.0478,0.051,0.0491,0.0525,0.0541,0.0545,0.0572,0.0576,0.0607,0.0581,0.059,0.0617,0.0622,0.0664,0.0616,0.0656,0.0657,0.0653,0.0748,0.0764,0.0836,0.0716,0.0717,0.0719,0,0.0444,0.0468,0.0537,0.0554,0.0567,0.0598,0.0625,0.0651,0.0669,0.067,0.0688,0.0678,0.0717,0.0682,0.0736,0.0704,0.0719,0.0724,0.0727,0.0731,0.0692,0.0756,0.0859,0.0871,0.0734,0.0733,0.0732,0,0.0509,0.0558,0.0606,0.0617,0.0638,0.0661,0.067,0.0686,0.0705,0.0728,0.0739,0.0766,0.0781,0.0802,0.08,0.0774,0.0855,0.0819,0.0857,0.0857,0.0875,0.0874,0.0984,0.0884,0.0884,0.0884,0.0883,0,0.0593,0.0635,0.0635,0.0665,0.0712,0.0706,0.0753,0.076,0.0775,0.0805,0.0789,0.0818,0.0812,0.084,0.0838,0.0884,0.089,0.0892,0.0891,0.0894,0.0894,0.0905,0.09,0.0886,0.0886,0.0885,0.0885,0,0.0673,0.0675,0.0726,0.0742,0.0747,0.0781,0.0794,0.0822,0.0824,0.0863,0.0871,0.0875,0.0908,0.0907,0.0943,0.0942,0.0998,0.0991,0.0993,0.0991,0.1029,0.1026,0.1151,0.1167,0.1055,0.1056,0.1057,0,0.0727,0.076,0.078,0.0799,0.0811,0.0842,0.0861,0.0856,0.0876,0.09,0.0924,0.0956,0.0981,0.1033,0.1039,0.1067,0.1061,0.1103,0.1065,0.1067,0.1063,0.1061,0.1065,0.111,0.1112,0.1113,0.1113,0,0.0823,0.0823,0.0851,0.0879,0.0902,0.0924,0.0945,0.0961,0.0959,0.0982,0.1016,0.1035,0.1073,0.1104,0.1131,0.114,0.1127,0.1125,0.1135,0.1139,0.1139,0.1141,0.1014,0.1122,0.1122,0.1121,0.112,0.112,0.0893,0.0921,0.094,0.0972,0.0987,0.1006,0.1033,0.104,0.1068,0.1099,0.1094,0.1132,0.1149,0.1184,0.1196,0.1225,0.121,0.1225,0.1229,0.1233,0.1238,0.1134,0.123,0.1229,0.1229,0.1229,0.1229,0,0.0989,0.1,0.1029,0.1059,0.1084,0.1069,0.1091,0.1113,0.1147,0.1164,0.1189,0.1228,0.1259,0.1267,0.1296,0.1318,0.1313,0.1326,0.1325,0.1327,0.1249,0.1237,0.133,0.133,0.133,0.133,0.133,0.133,0.1042,0.109,0.1091,0.1146,0.1157,0.1194,0.1208,0.1226,0.124,0.1285,0.131,0.1316,0.133,0.136,0.1387,0.1389,0.1401,0.1417,0.1416,0.1343,0.1333,0.1323,0.1312,0.1419,0.1419,0.1492,0.1493,0.1493]},{"header":{"parameterUnit":"m.s-1","parameterCategory":1,"la1":30.2991,"la2":30.254,"lo1":-89.0895,"lo2":-89.0444,"dy":0.0017,"dx":0.0017,"nx":28,"ny":28,"refTime":"2025-05-21T09:00:00:Z","depth":0,"parameterNumber":3,"parameterNumberName":"V-component_of_WINDS"},"data":[0,0,0,0,0,0,0,0,0,0,0,0,0,0,0,0,0,0,0,0,0,0,0,0,0,0,0,0,0,0,0,0,0,0,0,0,0,0,0,0,0,0,0,0,0,0,0,0,0,0,0,0,0,0,0,0,0,0,-0.2198,-0.22,0,-0.2341,-0.2343,-0.2344,-0.2451,-0.2452,-0.2452,-0.2453,-0.2602,-0.2605,-0.2608,0,0,0,0,0,0,0,0,0,0,0,0,0,-0.202,-0.2022,-0.2198,-0.22,-0.2201,-0.2341,-0.2343,-0.2345,-0.245,-0.2452,-0.2453,-0.2454,-0.2601,-0.2605,-0.2609,0,0,0,0,0,0,0,0,0,0,0,0,0,-0.2123,-0.2023,-0.2198,-0.2271,-0.2279,-0.234,-0.2343,-0.2345,-0.245,-0.2452,-0.2453,-0.2454,-0.26,-0.2604,-0.2609,-0.261,0,0,-0.2623,-0.2625,0,0,0,0,0,0,0,0,-0.2117,-0.213,-0.2258,-0.2266,-0.2275,-0.2379,-0.2335,-0.2434,-0.245,-0.2385,-0.2453,-0.2455,-0.2527,-0.2538,-0.2562,-0.2617,-0.2623,-0.2624,-0.2626,-0.2628,-0.263,0,0,0,0,0,0,0,-0.211,-0.2124,-0.2255,-0.226,-0.227,-0.2298,-0.2314,-0.2354,-0.2447,-0.2391,-0.2399,-0.2414,-0.2532,-0.2557,-0.2566,-0.2625,-0.2624,-0.2628,-0.2631,-0.2632,-0.2689,-0.2688,0,0,0,0,0,0,-0.2091,-0.2117,-0.225,-0.2259,-0.2198,-0.23,-0.2318,-0.2345,-0.2447,-0.2463,-0.2413,-0.2419,-0.2548,-0.256,-0.2572,-0.258,-0.2628,-0.2633,-0.2635,-0.2691,-0.2689,-0.2688,0,0,0,0,0,0,-0.2087,-0.2102,-0.2244,-0.219,-0.2211,-0.2301,-0.233,-0.2347,-0.2372,-0.2463,-0.2481,-0.2421,-0.255,-0.2565,-0.26,-0.2586,-0.2635,-0.2639,-0.2692,-0.269,-0.2689,-0.2595,0,0,0,0,0,0,-0.2081,-0.2099,-0.21,-0.219,-0.2213,-0.2268,-0.2329,-0.2348,-0.2379,-0.2388,-0.2475,-0.2491,-0.2552,-0.2592,-0.2604,-0.2593,-0.2643,-0.2694,-0.2691,-0.2689,-0.2599,-0.259,-0.2582,0,0,0,0,0,-0.2074,-0.2068,-0.2099,-0.2115,-0.2215,-0.2268,-0.2281,-0.235,-0.2377,-0.2379,-0.2438,-0.2489,-0.2586,-0.2595,-0.2609,-0.26,-0.2695,-0.2692,-0.2689,-0.2603,-0.2592,-0.2582,0,0,0,0,0,0,-0.1975,-0.2081,-0.2117,-0.2139,-0.2193,-0.2285,-0.2289,-0.2336,-0.2384,-0.239,-0.2476,-0.2494,-0.252,-0.2564,-0.2572,-0.2606,-0.2647,-0.2647,-0.2577,-0.2566,-0.2557,-0.2546,-0.2647,0,0,0,0,0,-0.1955,-0.1988,-0.208,-0.2091,-0.2116,-0.2198,-0.2223,-0.2272,-0.2332,-0.2355,-0.2417,-0.2474,-0.2518,-0.2545,-0.259,-0.2607,-0.2628,-0.2608,-0.2599,-0.2591,-0.259,-0.2603,-0.2595,-0.2678,-0.2679,-0.2679,0,0,-0.1916,-0.1978,-0.1993,-0.2072,-0.212,-0.2153,-0.2216,-0.2248,-0.2274,-0.2361,-0.2397,-0.2444,-0.2514,-0.2539,-0.2554,-0.2576,-0.2571,-0.2587,-0.258,-0.2584,-0.2599,-0.2591,-0.2584,-0.2677,-0.2677,-0.2677,0,0,-0.186,-0.191,-0.1925,-0.1972,-0.2043,-0.2098,-0.2101,-0.2186,-0.2221,-0.2258,-0.2324,-0.2357,-0.243,-0.2477,-0.251,-0.2473,-0.2521,-0.2486,-0.2439,-0.2451,-0.2444,-0.2439,-0.2426,-0.242,-0.2484,-0.2484,-0.2484,0,-0.1802,-0.1853,-0.1927,-0.1955,-0.1988,-0.2068,-0.2084,-0.2126,-0.2209,-0.223,-0.2255,-0.2349,-0.2401,-0.2439,-0.243,-0.2454,-0.2462,-0.2476,-0.2439,-0.2434,-0.243,-0.2419,-0.2414,-0.2479,-0.248,-0.248,-0.2481,0,-0.1779,-0.1813,-0.1817,-0.1894,-0.1928,-0.1949,-0.2027,-0.2053,-0.2099,-0.2151,-0.2189,-0.2255,-0.2315,-0.2328,-0.2374,-0.2373,-0.2385,-0.2423,-0.2465,-0.2416,-0.2407,-0.2403,-0.2472,-0.2474,-0.2475,-0.2477,0,0,-0.1664,-0.1781,-0.1781,-0.1818,-0.1903,-0.1931,-0.1958,-0.2016,-0.2036,-0.2091,-0.2115,-0.2176,-0.2212,-0.2249,-0.2301,-0.2311,-0.2278,-0.2349,-0.2352,-0.2333,-0.2282,-0.2252,-0.2246,-0.2311,-0.2311,-0.231,-0.2276,0,-0.1621,-0.1671,-0.1739,-0.1767,-0.18,-0.1877,-0.19,-0.1955,-0.2005,-0.2041,-0.2097,-0.2139,-0.2183,-0.2206,-0.222,-0.2279,-0.2269,-0.2283,-0.2336,-0.2337,-0.2315,-0.2241,-0.221,-0.2174,-0.2273,-0.2273,-0.2272,0,-0.1578,-0.1628,-0.1658,-0.1741,-0.1758,-0.1777,-0.1836,-0.187,-0.1934,-0.197,-0.2012,-0.2068,-0.2101,-0.2139,-0.2186,-0.2194,-0.222,-0.2253,-0.2253,-0.226,-0.2301,-0.2246,-0.2165,-0.2159,-0.2267,-0.2268,-0.2268,0,-0.1491,-0.1565,-0.1594,-0.1622,-0.172,-0.1731,-0.1773,-0.1839,-0.187,-0.1922,-0.1943,-0.1998,-0.2029,-0.2071,-0.2141,-0.2162,-0.2181,-0.2225,-0.2212,-0.221,-0.2211,-0.221,-0.2132,-0.2228,-0.2229,-0.2229,-0.2229,0,-0.1436,-0.1451,-0.1556,-0.1573,-0.1593,-0.1672,-0.169,-0.1739,-0.1797,-0.1826,-0.1897,-0.1922,-0.2014,-0.2051,-0.2106,-0.2136,-0.215,-0.218,-0.2195,-0.2174,-0.2169,-0.2191,-0.2195,-0.2227,-0.2228,-0.2228,-0.2228,0,-0.1341,-0.1412,-0.1447,-0.1537,-0.156,-0.157,-0.1648,-0.1668,-0.1722,-0.1758,-0.1771,-0.1856,-0.1904,-0.1978,-0.2048,-0.2085,-0.2106,-0.213,-0.2083,-0.2092,-0.2075,-0.2075,-0.2008,-0.2003,-0.2102,-0.2101,-0.21,0,-0.1301,-0.1315,-0.1406,-0.1429,-0.1468,-0.1506,-0.1537,-0.1616,-0.1646,-0.1721,-0.1733,-0.1785,-0.1831,-0.1904,-0.1973,-0.2027,-0.2052,-0.2025,-0.2061,-0.2039,-0.2052,-0.205,-0.2052,-0.2016,-0.2015,-0.2014,-0.2013,0,-0.1223,-0.1257,-0.1299,-0.1354,-0.1389,-0.1437,-0.1487,-0.1503,-0.1593,-0.1624,-0.1673,-0.1708,-0.1779,-0.1831,-0.1894,-0.1939,-0.1991,-0.2001,-0.2001,-0.1979,-0.1951,-0.1966,-0.206,-0.2002,-0.2003,-0.2004,-0.2005,-0.2005,-0.1154,-0.117,-0.1236,-0.1281,-0.1328,-0.1374,-0.1397,-0.1454,-0.1496,-0.1559,-0.1603,-0.1649,-0.1715,-0.1806,-0.1847,-0.1885,-0.1908,-0.1908,-0.1908,-0.1906,-0.1898,-0.1946,-0.1897,-0.1898,-0.1898,-0.1898,-0.1899,0,-0.1079,-0.1126,-0.1166,-0.1235,-0.127,-0.1316,-0.1375,-0.1402,-0.1441,-0.1498,-0.1541,-0.1598,-0.1648,-0.1722,-0.1778,-0.1794,-0.182,-0.1807,-0.1806,-0.1815,-0.1875,-0.1869,-0.1785,-0.1785,-0.1785,-0.1785,-0.1785,-0.1785,-0.1044,-0.1073,-0.1116,-0.1169,-0.1216,-0.1261,-0.1291,-0.1334,-0.1379,-0.1439,-0.1481,-0.1528,-0.1592,-0.1654,-0.1702,-0.1723,-0.174,-0.1719,-0.1747,-0.1801,-0.1811,-0.1821,-0.1816,-0.1723,-0.1722,-0.1685,-0.1684,-0.1684]}]]